TimeMDT,TemperatureF,Dew PointF,Humidity,Sea Level PressureIn,VisibilityMPH,Wind Direction,Wind SpeedMPH,Gust SpeedMPH,PrecipitationIn,Events,Conditions,WindDirDegrees,DateUTC
12:53 AM,37.0,30.9,79,30.05,10.0,SW,10.4,-,N/A,,Clear,230,2012-10-08 06:53:00
1:53 AM,35.1,28.9,78,30.05,10.0,SW,9.2,-,N/A,,Clear,230,2012-10-08 07:53:00
2:53 AM,37.0,28.9,73,30.01,10.0,WSW,12.7,-,N/A,,Clear,250,2012-10-08 08:53:00
3:53 AM,35.1,28.0,76,30.00,10.0,WSW,11.5,-,N/A,,Clear,240,2012-10-08 09:53:00
4:53 AM,37.0,28.0,70,29.98,10.0,WSW,12.7,-,N/A,,Clear,240,2012-10-08 10:53:00
5:53 AM,37.0,28.0,70,29.98,10.0,WSW,13.8,-,N/A,,Clear,250,2012-10-08 11:53:00
6:53 AM,36.0,27.0,70,30.00,10.0,West,10.4,-,N/A,,Clear,260,2012-10-08 12:53:00
7:53 AM,43.0,28.0,56,30.01,10.0,WSW,12.7,-,N/A,,Clear,250,2012-10-08 13:53:00
8:53 AM,52.0,30.0,43,30.00,10.0,West,11.5,-,N/A,,Clear,270,2012-10-08 14:53:00
9:53 AM,59.0,23.0,25,29.98,10.0,WSW,16.1,-,N/A,,Clear,250,2012-10-08 15:53:00
10:53 AM,63.0,21.9,21,29.94,10.0,WSW,11.5,-,N/A,,Clear,250,2012-10-08 16:53:00
11:53 AM,66.9,14.0,13,29.89,10.0,Variable,3.5,-,N/A,,Clear,0,2012-10-08 17:53:00
12:53 PM,68.0,17.1,14,29.87,10.0,SSW,6.9,-,N/A,,Clear,210,2012-10-08 18:53:00
1:53 PM,69.1,14.0,12,29.84,10.0,Variable,4.6,-,N/A,,Clear,0,2012-10-08 19:53:00
2:53 PM,70.0,19.0,14,29.81,10.0,South,9.2,-,N/A,,Clear,180,2012-10-08 20:53:00
3:53 PM,70.0,19.0,14,29.80,10.0,SW,8.1,18.4,N/A,,Clear,220,2012-10-08 21:53:00
4:53 PM,70.0,17.1,13,29.79,10.0,SSW,9.2,-,N/A,,Clear,200,2012-10-08 22:53:00
5:53 PM,64.0,24.1,22,29.80,10.0,South,8.1,-,N/A,,Clear,190,2012-10-08 23:53:00
6:53 PM,53.1,28.9,40,29.83,10.0,South,10.4,-,N/A,,Clear,180,2012-10-09 00:53:00
7:53 PM,50.0,30.9,48,29.82,10.0,South,10.4,-,N/A,,Clear,170,2012-10-09 01:53:00
8:53 PM,48.0,30.0,50,29.81,10.0,South,12.7,-,N/A,,Clear,190,2012-10-09 02:53:00
9:53 PM,45.0,32.0,60,29.79,10.0,South,10.4,-,N/A,,Clear,180,2012-10-09 03:53:00
10:53 PM,44.1,32.0,63,29.78,10.0,South,9.2,-,N/A,,Clear,190,2012-10-09 04:53:00
11:53 PM,41.0,32.0,70,29.77,10.0,SW,9.2,-,N/A,,Clear,220,2012-10-09 05:53:00